Weather History for KMPO - October, 2012

Change the Weather History Date:

Sunday, October 7, 2012

  Actual Average Record
Temperature  
Mean Temperature 44 °F 51 °F  
Max Temperature 49 °F 60 °F 82 °F (1946)
Min Temperature 38 °F 42 °F 23 °F (1904)
Degree Days  
Heating Degree Days 21 14  
Month to date heating degree days 57 93  
Since 1 July heating degree days 275 361  
Cooling Degree Days 0 0  
Month to date cooling degree days 0 0  
Year to date cooling degree days 453 313  
Moisture  
Dew Point 37 °F    
Average Humidity 75    
Maximum Humidity 93    
Minimum Humidity 56    
Precipitation  
Precipitation 0.13 in 0.15 in 2.49 in (2005)
Month to date precipitation 1.25 1.12  
Year to date precipitation 34.96 37.46  
Sea Level Pressure  
Sea Level Pressure 30.07 in    
Wind  
Wind Speed 5 mph (WNW)    
Max Wind Speed 16 mph    
Max Gust Speed 23 mph    
Visibility 10 miles    
Events Rain    
T = Trace of Precipitation, MM = Missing Value Source: NWS Daily Summary

Daily Weather History Graph

Daily Weather History Graph

Search for Another Location

Airport or City:

Trip Planner

Search our weather history database for the weather conditions in past years. The results will help you decide how hot, cold, wet, or windy it might be!

Date:

Astronomy

Oct. 07, 2012 Rise Set
Actual Time 7:04 AM EDT 6:32 PM EDT
Civil Twilight 6:37 AM EDT 7:00 PM EDT
Nautical Twilight 6:05 AM EDT 7:32 PM EDT
Astronomical Twilight 5:33 AM EDT 8:04 PM EDT
Moon 11:40 PM EDT (10/7) 1:42 PM EDT (10/7)
Length of Visible Light 12h 22m
Length of Day
11h 27m
Waning Gibbous, 56% of the Moon is Illuminated
Oct 7
Waning Gibbous
Oct 8
Last Quarter
Oct 15
New
Oct 21
First Quarter
Oct 29
Full

Hourly Weather History & Observations

Time (EDT) Temp. Windchill Dew Point Humidity Pressure Visibility Wind Dir Wind Speed Gust Speed Precip Events Conditions
1:53 AM 41.0 °F 37.1 °F 36.0 °F 82% 30.05 in 10.0 mi NW 5.8 mph - N/A   Clear
2:53 AM 41.0 °F 35.8 °F 36.0 °F 82% 30.04 in 10.0 mi NW 8.1 mph - N/A   Clear
3:53 AM 41.0 °F 32.8 °F 35.1 °F 79% 30.01 in 10.0 mi NW 16.1 mph 21.9 mph N/A   Clear
4:53 AM 41.0 °F 35.8 °F 35.1 °F 79% 30.01 in 10.0 mi NW 8.1 mph 23.0 mph N/A   Partly Cloudy
5:53 AM 41.0 °F 39.0 °F 35.1 °F 79% 30.04 in 10.0 mi Variable 3.5 mph - N/A   Mostly Cloudy
6:53 AM 41.0 °F - 37.0 °F 86% 30.07 in 10.0 mi Calm Calm - N/A   Overcast
7:53 AM 42.1 °F 40.2 °F 37.0 °F 82% 30.09 in 10.0 mi WNW 3.5 mph - N/A   Overcast
8:53 AM 43.0 °F - 37.0 °F 80% 30.11 in 10.0 mi Calm Calm - N/A   Overcast
9:53 AM 44.1 °F 42.5 °F 36.0 °F 73% 30.12 in 10.0 mi NW 3.5 mph - N/A   Overcast
10:53 AM 45.0 °F - 37.0 °F 74% 30.11 in 10.0 mi Calm Calm - N/A   Overcast
11:53 AM 46.0 °F - 37.0 °F 71% 30.10 in 10.0 mi Calm Calm - N/A   Overcast
12:53 PM 46.9 °F - 34.0 °F 61% 30.09 in 10.0 mi Variable 3.5 mph - N/A   Mostly Cloudy
1:53 PM 48.0 °F - 33.1 °F 56% 30.06 in 10.0 mi SE 3.5 mph - N/A   Overcast
2:53 PM 48.0 °F - 35.1 °F 61% 30.04 in 10.0 mi Calm Calm - N/A   Overcast
3:53 PM 48.0 °F - 36.0 °F 63% 30.04 in 10.0 mi SSW 9.2 mph - N/A   Overcast
4:53 PM 48.0 °F - 37.0 °F 66% 30.02 in 10.0 mi WSW 6.9 mph - N/A   Overcast
5:53 PM 46.9 °F - 37.9 °F 71% 30.03 in 9.0 mi West 6.9 mph - 0.01 in Rain Light Rain
6:53 PM 44.1 °F 39.5 °F 39.9 °F 85% 30.06 in 9.0 mi NW 8.1 mph - 0.02 in Rain Light Rain
7:09 PM 42.8 °F 37.5 °F 39.2 °F 87% 30.04 in 10.0 mi WNW 9.2 mph - 0.01 in Rain Light Rain
7:42 PM 42.8 °F 38.6 °F 39.2 °F 87% 30.04 in 7.0 mi NW 6.9 mph - 0.06 in Rain Light Rain
7:53 PM 42.1 °F 37.7 °F 39.0 °F 89% 30.08 in 7.0 mi NW 6.9 mph - 0.07 in Rain Light Rain
8:02 PM 42.8 °F 39.3 °F 39.2 °F 87% 30.05 in 9.0 mi WNW 5.8 mph - 0.01 in Rain Light Rain
8:53 PM 41.0 °F 37.1 °F 37.9 °F 89% 30.10 in 10.0 mi WNW 5.8 mph - 0.03 in   Overcast
9:27 PM 41.0 °F 37.1 °F 37.4 °F 87% 30.07 in 10.0 mi WNW 5.8 mph - N/A   Overcast
9:53 PM 41.0 °F 37.1 °F 39.0 °F 93% 30.12 in 10.0 mi WNW 5.8 mph - 0.00 in   Overcast
10:24 PM 39.2 °F 37.0 °F 37.4 °F 93% 30.07 in 10.0 mi West 3.5 mph - N/A   Mostly Cloudy
10:53 PM 39.0 °F 34.8 °F 37.9 °F 96% 30.11 in 8.0 mi WNW 5.8 mph - N/A   Clear
11:53 PM 39.9 °F 34.5 °F 37.9 °F 93% 30.12 in 10.0 mi WNW 8.1 mph - N/A   Mostly Cloudy